Weather History for West Palm Beach, FL

Change the Weather History Date:

Friday, March 2, 2012

  Actual Average Record
Temperature  
Mean Temperature 75 °F 69 °F  
Max Temperature 83 °F 78 °F 92 °F (2003)
Min Temperature 66 °F 61 °F 26 °F (1920)
Degree Days  
Heating Degree Days 0 1  
Month to date heating degree days 0 2  
Since 1 July heating degree days 109 207  
Cooling Degree Days 10 5  
Month to date cooling degree days 19 10  
Year to date cooling degree days 335 245  
Growing Degree Days 24 (Base 50)    
Moisture  
Dew Point 67 °F    
Average Humidity 79    
Maximum Humidity 100    
Minimum Humidity 58    
Precipitation  
Precipitation 0.00 in 0.12 in 3.83 in (1947)
Month to date precipitation T 0.24  
Year to date precipitation 4.20 6.19  
Snow  
Snow 0.00 in - - ()
Month to date snowfall 0.0  
Since 1 July snowfall 0.0  
Snow Depth 0.00 in    
Sea Level Pressure  
Sea Level Pressure 30.02 in    
Wind  
Wind Speed 8 mph (SSE)    
Max Wind Speed 21 mph    
Max Gust Speed 25 mph    
Visibility 10 miles    
Events      
T = Trace of Precipitation, MM = Missing Value Source: NWS Daily Summary

Daily Weather History Graph

Daily Weather History Graph

Search for Another Location

Airport:

Trip Planner

Search our weather history database for the weather conditions in past years. The results will help you decide how hot, cold, wet, or windy it might be!

Date:

Astronomy

Mar. 02, 2012 Rise Set
Actual Time 6:42 AM EST 6:22 PM EST
Civil Twilight 6:19 AM EST 6:45 PM EST
Nautical Twilight 5:52 AM EST 7:12 PM EST
Astronomical Twilight 5:25 AM EST 7:39 PM EST
Moon 12:57 PM EST (3/2) 2:06 AM EST (3/2)
Length of Visible Light 12h 26m
Length of Day
11h 39m
Waxing Gibbous, 66% of the Moon is Illuminated
Mar 2
Waxing Gibbous
Mar 8
Full
Mar 14
Last Quarter
Mar 22
New
Mar 30
First Quarter

Hourly Weather History & Observations

Time (EST) Temp. Heat Index Dew Point Humidity Pressure Visibility Wind Dir Wind Speed Gust Speed Precip Events Conditions
12:53 AM 70.0 °F - 68.0 °F 93% 30.04 in 10.0 mi SSW 4.6 mph - N/A   Clear
1:53 AM 70.0 °F - 66.9 °F 90% 30.03 in 10.0 mi Calm Calm - N/A   Clear
2:53 AM 68.0 °F - 66.0 °F 93% 30.01 in 10.0 mi Calm Calm - N/A   Clear
3:53 AM 69.1 °F - 66.9 °F 93% 30.01 in 10.0 mi Calm Calm - N/A   Partly Cloudy
4:53 AM 68.0 °F - 66.0 °F 93% 30.02 in 10.0 mi Calm Calm - N/A   Partly Cloudy
5:53 AM 66.9 °F - 66.0 °F 97% 30.02 in 10.0 mi Calm Calm - N/A   Partly Cloudy
6:53 AM 66.0 °F - 64.9 °F 96% 30.04 in 10.0 mi Calm Calm - N/A   Scattered Clouds
7:53 AM 72.0 °F - 69.1 °F 91% 30.05 in 10.0 mi Calm Calm - N/A   Scattered Clouds
8:53 AM 75.9 °F - 70.0 °F 82% 30.06 in 10.0 mi South 3.5 mph - N/A   Mostly Cloudy
9:53 AM 78.1 °F - 68.0 °F 71% 30.06 in 10.0 mi South 6.9 mph - N/A   Mostly Cloudy
10:53 AM 80.1 °F 82.3 °F 66.9 °F 64% 30.06 in 10.0 mi South 9.2 mph - N/A   Mostly Cloudy
11:53 AM 81.0 °F 83.3 °F 66.9 °F 62% 30.05 in 10.0 mi SSE 15.0 mph 21.9 mph N/A   Mostly Cloudy
12:53 PM 81.0 °F 83.0 °F 66.0 °F 60% 30.03 in 10.0 mi SSE 13.8 mph - N/A   Mostly Cloudy
1:53 PM 82.0 °F 84.1 °F 66.0 °F 58% 30.01 in 10.0 mi South 15.0 mph - N/A   Mostly Cloudy
2:53 PM 82.0 °F 84.9 °F 68.0 °F 62% 29.99 in 10.0 mi SE 16.1 mph - N/A   Mostly Cloudy
3:53 PM 81.0 °F 83.3 °F 66.9 °F 62% 29.98 in 10.0 mi SSE 16.1 mph 25.3 mph N/A   Scattered Clouds
4:53 PM 80.1 °F 82.3 °F 66.9 °F 64% 29.98 in 10.0 mi SSE 16.1 mph 24.2 mph N/A   Scattered Clouds
5:53 PM 78.1 °F - 66.9 °F 68% 29.99 in 10.0 mi SSE 16.1 mph - N/A   Scattered Clouds
6:53 PM 77.0 °F - 68.0 °F 74% 29.99 in 10.0 mi SSE 12.7 mph - N/A   Scattered Clouds
7:53 PM 75.9 °F - 68.0 °F 76% 30.00 in 10.0 mi South 10.4 mph - N/A   Partly Cloudy
8:53 PM 75.9 °F - 69.1 °F 79% 30.01 in 10.0 mi South 10.4 mph - N/A   Partly Cloudy
9:53 PM 75.0 °F - 68.0 °F 79% 30.01 in 10.0 mi South 8.1 mph - N/A   Partly Cloudy
10:53 PM 73.9 °F - 68.0 °F 82% 29.99 in 10.0 mi South 9.2 mph - N/A   Clear
11:53 PM 73.0 °F - 69.1 °F 87% 29.99 in 10.0 mi South 5.8 mph - N/A   Clear